• In Czech Republic
  • List of Countries
  • For 7 days
  • Water Temperature
  • Satellite Maps
  • Weather Map
  • Weather Widgets
  • user-avatar
    Login

    Hourly Weather Nikolskoe

    Today, 19 July, Thursday

    Time Temperature Precipitation Wind Pressure Humidity
    00:00 +19°C° 0 mm 4 mps 742 mmHg 96%
    01:00 +18°C° 0 mm 3 mps 742 mmHg 96%
    02:00 +18°C° 0 mm 2 mps 742 mmHg 97%
    03:00 +18°C° 0 mm 3 mps 742 mmHg 96%
    04:00 +18°C° 0 mm 3 mps 742 mmHg 96%
    05:00 +18°C° 0 mm 4 mps 742 mmHg 95%
    06:00 +19°C° 0 mm 4 mps 742 mmHg 91%
    07:00 +21°C° 0 mm 4 mps 742 mmHg 86%
    08:00 +22°C° 0 mm 4 mps 742 mmHg 81%
    09:00 +22°C° 0.4 mm 4 mps 742 mmHg 81%
    10:00 +23°C° 0.4 mm 5 mps 742 mmHg 81%
    11:00 +25°C° 0.4 mm 5 mps 742 mmHg 80%
    12:00 +25°C° 0.8 mm 5 mps 742 mmHg 80%
    13:00 +25°C° 0.8 mm 5 mps 742 mmHg 80%
    14:00 +25°C° 0.8 mm 5 mps 742 mmHg 80%
    15:00 +25°C° 0.3 mm 5 mps 742 mmHg 81%
    16:00 +23°C° 0.3 mm 5 mps 742 mmHg 81%
    17:00 +23°C° 0.3 mm 4 mps 742 mmHg 81%
    18:00 +22°C° 0 mm 4 mps 742 mmHg 84%
    19:00 +22°C° 0 mm 4 mps 742 mmHg 87%
    20:00 +21°C° 0 mm 3 mps 742 mmHg 89%
    21:00 +20°C° 0.1 mm 3 mps 741 mmHg 92%
    22:00 +20°C° 0.1 mm 3 mps 741 mmHg 94%
    23:00 +19°C° 0.1 mm 4 mps 741 mmHg 97%

    Tomorrow, 20 July, Friday

    Time Temperature Precipitation Wind Pressure Humidity
    00:00 +19°C° 0 mm 4 mps 741 mmHg 97%
    01:00 +19°C° 0 mm 3 mps 741 mmHg 96%
    02:00 +19°C° 0 mm 3 mps 741 mmHg 96%
    03:00 +19°C° 0.1 mm 3 mps 741 mmHg 96%
    04:00 +19°C° 0.1 mm 3 mps 741 mmHg 96%
    05:00 +19°C° 0.1 mm 3 mps 741 mmHg 96%
    06:00 +19°C° 0.1 mm 3 mps 741 mmHg 96%
    07:00 +20°C° 0.1 mm 3 mps 741 mmHg 95%
    08:00 +20°C° 0.1 mm 3 mps 741 mmHg 95%
    09:00 +20°C° 0.1 mm 3 mps 741 mmHg 94%
    10:00 +20°C° 0.1 mm 3 mps 741 mmHg 93%
    11:00 +21°C° 0.1 mm 3 mps 741 mmHg 93%
    12:00 +21°C° 0.1 mm 3 mps 741 mmHg 93%
    13:00 +21°C° 0.1 mm 3 mps 741 mmHg 92%
    14:00 +21°C° 0.1 mm 3 mps 741 mmHg 92%
    15:00 +22°C° 0.3 mm 3 mps 741 mmHg 90%
    16:00 +24°C° 0.3 mm 3 mps 741 mmHg 89%
    17:00 +24°C° 0.3 mm 3 mps 741 mmHg 87%
    18:00 +24°C° 1.2 mm 3 mps 741 mmHg 89%
    19:00 +22°C° 1.2 mm 3 mps 741 mmHg 92%
    20:00 +21°C° 1.2 mm 3 mps 741 mmHg 94%
    21:00 +21°C° 0.9 mm 2 mps 741 mmHg 95%
    22:00 +20°C° 0.9 mm 2 mps 741 mmHg 96%
    23:00 +20°C° 0.9 mm 2 mps 741 mmHg 97%

    Day after tomorrow, 21 July, Saturday

    Time Temperature Precipitation Wind Pressure Humidity
    00:00 +20°C° 0 mm 2 mps 741 mmHg 97%
    01:00 +20°C° 0 mm 2 mps 741 mmHg 98%
    02:00 +20°C° 0 mm 2 mps 741 mmHg 98%
    03:00 +20°C° 0.1 mm 2 mps 741 mmHg 98%
    04:00 +20°C° 0.1 mm 2 mps 741 mmHg 98%
    05:00 +20°C° 0.1 mm 2 mps 741 mmHg 98%
    06:00 +21°C° 0.2 mm 3 mps 741 mmHg 96%
    07:00 +22°C° 0.2 mm 3 mps 742 mmHg 94%
    08:00 +22°C° 0.2 mm 3 mps 742 mmHg 92%
    09:00 +25°C° 0.2 mm 2 mps 742 mmHg 86%
    10:00 +26°C° 0.2 mm 2 mps 742 mmHg 81%
    11:00 +27°C° 0.2 mm 2 mps 742 mmHg 75%
    12:00 +28°C° 1 mm 3 mps 742 mmHg 76%
    13:00 +28°C° 1 mm 3 mps 742 mmHg 77%
    14:00 +28°C° 1 mm 3 mps 742 mmHg 78%
    15:00 +28°C° 0.6 mm 3 mps 742 mmHg 79%
    16:00 +28°C° 0.6 mm 3 mps 742 mmHg 79%
    17:00 +27°C° 0.6 mm 3 mps 742 mmHg 80%
    18:00 +26°C° 0.3 mm 3 mps 742 mmHg 84%
    19:00 +25°C° 0.3 mm 3 mps 742 mmHg 87%
    20:00 +24°C° 0.3 mm 2 mps 742 mmHg 91%
    21:00 +23°C° 0.1 mm 2 mps 742 mmHg 92%
    22:00 +21°C° 0.1 mm 2 mps 742 mmHg 94%
    23:00 +21°C° 0.1 mm 2 mps 742 mmHg 95%

    22 July, Sunday

    Time Temperature Precipitation Wind Pressure Humidity
    00:00 +20°C° 0 mm 2 mps 742 mmHg 96%
    01:00 +20°C° 0 mm 2 mps 742 mmHg 97%
    02:00 +20°C° 0 mm 3 mps 742 mmHg 97%
    03:00 +20°C° 0.2 mm 3 mps 742 mmHg 97%
    04:00 +20°C° 0.2 mm 3 mps 742 mmHg 97%
    05:00 +20°C° 0.2 mm 3 mps 743 mmHg 97%
    06:00 +20°C° 0 mm 3 mps 743 mmHg 96%
    07:00 +21°C° 0 mm 3 mps 743 mmHg 95%
    08:00 +21°C° 0 mm 3 mps 743 mmHg 94%
    09:00 +21°C° 0 mm 3 mps 743 mmHg 92%
    10:00 +22°C° 0 mm 3 mps 743 mmHg 91%
    11:00 +22°C° 0 mm 3 mps 743 mmHg 90%
    12:00 +22°C° 0 mm 3 mps 743 mmHg 87%
    13:00 +24°C° 0 mm 3 mps 743 mmHg 85%
    14:00 +24°C° 0 mm 3 mps 742 mmHg 83%
    15:00 +25°C° 0.1 mm 3 mps 742 mmHg 82%
    16:00 +26°C° 0.1 mm 3 mps 742 mmHg 80%
    17:00 +26°C° 0.1 mm 3 mps 742 mmHg 79%
    18:00 +25°C° 0.2 mm 3 mps 742 mmHg 84%
    19:00 +24°C° 0.2 mm 2 mps 742 mmHg 89%
    20:00 +23°C° 0.2 mm 2 mps 742 mmHg 94%
    21:00 +22°C° 0.4 mm 3 mps 742 mmHg 95%
    22:00 +21°C° 0.4 mm 3 mps 742 mmHg 95%
    23:00 +21°C° 0.4 mm 3 mps 742 mmHg 96%

    23 July, Monday

    Time Temperature Precipitation Wind Pressure Humidity
    00:00 +21°C° 0 mm 3 mps 742 mmHg 97%
    01:00 +21°C° 0 mm 3 mps 742 mmHg 97%
    02:00 +20°C° 0 mm 3 mps 742 mmHg 98%
    03:00 +20°C° 0.1 mm 3 mps 742 mmHg 97%
    04:00 +21°C° 0.1 mm 3 mps 742 mmHg 97%
    05:00 +21°C° 0.1 mm 3 mps 742 mmHg 96%
    06:00 +21°C° 0.1 mm 3 mps 742 mmHg 96%
    07:00 +21°C° 0.1 mm 3 mps 742 mmHg 95%
    08:00 +21°C° 0.1 mm 3 mps 742 mmHg 94%
    09:00 +22°C° 0 mm 3 mps 742 mmHg 93%
    10:00 +22°C° 0 mm 3 mps 743 mmHg 91%
    11:00 +24°C° 0 mm 3 mps 743 mmHg 90%
    12:00 +24°C° 0 mm 3 mps 743 mmHg 88%
    13:00 +24°C° 0 mm 3 mps 743 mmHg 87%
    14:00 +25°C° 0 mm 3 mps 743 mmHg 86%
    15:00 +25°C° 0.1 mm 3 mps 743 mmHg 86%
    16:00 +25°C° 0.1 mm 3 mps 743 mmHg 86%
    17:00 +25°C° 0.1 mm 2 mps 743 mmHg 87%
    18:00 +24°C° 0.1 mm 2 mps 743 mmHg 89%
    19:00 +23°C° 0.1 mm 2 mps 743 mmHg 91%
    20:00 +23°C° 0.1 mm 2 mps 743 mmHg 94%
    21:00 +21°C° 0.2 mm 2 mps 743 mmHg 95%
    22:00 +21°C° 0.2 mm 2 mps 743 mmHg 96%
    23:00 +21°C° 0.2 mm 2 mps 743 mmHg 97%

    24 July, Tuesday

    Time Temperature Precipitation Wind Pressure Humidity
    00:00 +20°C° 0 mm 2 mps 743 mmHg 97%
    01:00 +20°C° 0 mm 2 mps 743 mmHg 98%
    02:00 +20°C° 0 mm 3 mps 743 mmHg 98%
    03:00 +20°C° 0.1 mm 3 mps 743 mmHg 98%
    04:00 +20°C° 0.1 mm 3 mps 743 mmHg 97%
    05:00 +20°C° 0.1 mm 3 mps 743 mmHg 96%
    06:00 +21°C° 0.1 mm 3 mps 744 mmHg 95%
    07:00 +21°C° 0.1 mm 3 mps 744 mmHg 94%
    08:00 +22°C° 0.1 mm 3 mps 744 mmHg 93%
    09:00 +24°C° 0.1 mm 3 mps 744 mmHg 89%
    10:00 +24°C° 0.1 mm 3 mps 744 mmHg 84%
    11:00 +25°C° 0.1 mm 4 mps 745 mmHg 80%
    12:00 +26°C° 0.2 mm 3 mps 745 mmHg 77%
    13:00 +27°C° 0.2 mm 3 mps 745 mmHg 74%
    14:00 +27°C° 0.2 mm 3 mps 745 mmHg 70%
    15:00 +27°C° 0.5 mm 3 mps 745 mmHg 75%
    16:00 +26°C° 0.5 mm 3 mps 745 mmHg 79%
    17:00 +26°C° 0.5 mm 3 mps 745 mmHg 83%
    18:00 +25°C° 0.3 mm 3 mps 745 mmHg 87%
    19:00 +24°C° 0.3 mm 3 mps 745 mmHg 91%
    20:00 +23°C° 0.3 mm 2 mps 745 mmHg 95%
    21:00 +21°C° 0.1 mm 2 mps 745 mmHg 96%
    22:00 +21°C° 0.1 mm 2 mps 745 mmHg 96%
    23:00 +20°C° 0.1 mm 2 mps 746 mmHg 97%
    Show more